Location: Gr�nwald
(48.6667°N, 13.9833°E)
Time: 20:30:31
(UTC+00:00)

Daily predictions for brighter satellites

Satellite Brightness Start Highest point End
(mag) Time Altitude Azimuth Time Altitude Azimuth Time Altitude Azimuth
Cosmos 1606 3.5 15:41:10 10° SSE 15:44:29 30° E 15:47:50 10° NNE
FengYun 1-2 T 4.4 15:39:37 10° SE 15:45:03 53° ENE 15:50:27 10° N
Cosmos 44 3.7 15:43:02 10° NNW 15:47:41 41° NE 15:52:03 10° ESE
ATLAS CENTAUR R/B 1.5 15:43:52 10° SW 15:47:58 90° SE 15:52:27 10° NE
SL-16 R/B 4.5 15:43:52 10° N 15:48:34 23° NW 15:53:17 10° WSW
Cosmos 2221 3.3 15:46:04 10° SSE 15:49:52 32° E 15:53:42 10° NNE
Cosmos 2098 Rocket 4.3 15:44:53 10° N 15:51:16 90° E 15:58:33 10° S
COSMO-SKYMED 1 4.4 15:52:59 10° ENE 15:54:44 12° E 15:56:28 10° ESE
CZ-2C R/B 4.1 15:53:34 10° NE 15:56:43 16° E 15:59:51 10° SE
NOAA 12 4.1 15:52:10 10° SSE 15:57:29 77° ENE 16:02:49 10° NNW
CZ-4C R/B 3.7 15:52:24 10° NW 15:57:54 28° NNE 16:04:19 10° ENE
USA 308 2.9 15:56:51 10° WSW 16:01:07 88° SE 16:05:10 11° ENE
Okean O Rocket 2.9 16:01:26 10° ESE 16:04:35 19° ENE 16:07:46 10° NNE
ISS -3.4 16:05:51 10° W 16:09:11 52° N 16:11:56 14° ENE
Cosmos 1464 Rocket 4.1 16:06:02 10° S 16:12:20 68° E 16:18:41 10° NNE
YAOGAN 1 4.4 16:13:14 12° NE 16:13:14 12° NE 16:14:45 10° NNE
NOAA 6 4.0 16:08:47 10° SSE 16:13:54 73° ENE 16:19:02 10° N
Cosmos 1461 3.7 16:10:22 10° WSW 16:14:26 45° NW 16:18:23 10° NNE
Cosmos 2084 4.1 16:15:13 10° NNW 16:19:11 36° NE 16:23:06 11° ESE
Cosmos 1408 Rocket 3.4 16:14:55 10° N 16:19:17 72° E 16:23:37 10° SSE
Cosmos 1271 Rocket 3.3 16:16:30 10° SSW 16:20:22 63° WNW 16:24:20 10° N
NOSS 2-1 (E) 3.1 16:17:59 10° SW 16:21:12 65° NW 16:24:04 14° NE
GEOS 3 Rocket 4.0 16:17:30 10° ESE 16:22:27 44° NE 16:27:21 10° NNW
CZ-4 R/B 3.5 16:24:22 11° NNE 16:24:22 11° NNE 16:24:36 10° NNE
CZ-4B R/B 3.7 16:18:38 10° S 16:22:45 55° W 16:26:41 10° NNW
Cosmos 1743 Rocket 3.8 16:19:27 10° N 16:23:38 44° ENE 16:27:45 10° SSE
Cosmos 1697 Rocket 3.1 16:18:27 10° NNW 16:23:43 39° NE 16:28:56 10° ESE
Cosmos 1980 Rocket 3.2 16:20:41 10° N 16:25:21 25° NE 16:28:49 15° E
Cosmos 1937 Rocket 4.2 16:21:03 10° N 16:25:50 32° NE 16:30:34 10° ESE
Cosmos 1782 4.2 16:24:01 10° SE 16:26:44 18° E 16:26:57 18° E
Nadezhda 4 Rocket 4.0 16:20:40 10° N 16:27:00 75° E 16:33:20 10° SSE
Lacrosse 5 3.8 16:22:56 10° WNW 16:27:26 32° SW 16:31:55 10° S
USA 267 3.4 16:21:33 13° NE 16:27:32 69° NNW 16:34:00 10° WSW
Cosmos 1763 Rocket 4.2 16:23:14 10° SSE 16:27:42 32° ESE 16:31:14 15° NE
deb Kosmos-1763 3.8 16:24:22 10° SSW 16:27:47 82° ESE 16:30:54 12° NNE
SL-16 R/B 4.0 16:26:23 10° N 16:28:45 12° NNE 16:29:48 12° NE
Cosmos 1656 3.6 16:24:34 10° NNW 16:30:07 74° ENE 16:35:42 10° SSE
USA 305 3.1 16:26:18 10° WSW 16:30:30 63° NNW 16:33:22 20° ENE
CZ-2C R/B 3.9 16:26:09 10° S 16:31:01 50° W 16:35:43 10° NNW
CZ-4B DEB 4.2 16:27:41 10° SSE 16:33:13 82° ENE 16:38:44 10° NNW
Cosmos 1340 Rocket 2.7 16:32:12 10° N 16:36:17 71° ENE 16:40:20 10° SSE
Cosmos 2082 Rocket 3.7 16:33:28 10° SE 16:36:39 16° E 16:36:39 16° E
Cosmos 1092 Rocket 4.1 16:31:00 10° N 16:37:15 55° ENE 16:43:28 10° SSE
USA 229 DEB 3.9 16:31:29 10° NW 16:38:41 65° NE 16:46:23 10° SE
USA 229 3.9 16:31:34 10° NW 16:38:47 65° NE 16:46:28 10° SE
Cosmos 990 Rocket 3.9 16:36:18 10° NNW 16:41:31 69° ENE 16:46:40 10° SSE
COSMOS 2406 4.1 16:36:50 10° SSE 16:41:38 28° ESE 16:43:56 21° ENE
AQUARIUS 4.4 16:37:37 10° S 16:42:06 74° WSW 16:46:37 10° NNW
SKYMED 2 4.2 16:40:36 18° NE 16:43:16 34° E 16:47:13 10° SSE
Lacrosse 5 rocket 2.7 16:40:43 10° NW 16:43:53 24° N 16:45:17 20° NNE
ATLAS 2AS CENTAUR R/B 4.1 16:39:40 10° W 16:46:34 33° NNW 16:52:29 13° NE
USA 276 2.0 16:43:28 10° WNW 16:46:37 88° SSW 16:47:51 34° ESE
Cosmos 1602 3.9 16:42:55 10° N 16:46:38 45° ENE 16:50:20 10° SSE
ATLAS CENTAUR R/B 3.3 16:38:39 10° SSW 16:48:24 49° SE 16:50:58 26° E
PAYLOAD B 4.2 16:43:13 10° SSE 16:48:50 86° ENE 16:54:28 10° NNW
Cosmos 1933 3.6 16:44:58 10° SSE 16:48:51 44° E 16:51:18 20° NNE
Cosmos 1428 Rocket 4.4 16:43:50 10° N 16:49:53 59° ENE 16:55:56 10° SSE
SJ 16-02 3.3 16:46:12 10° NW 16:50:06 32° WSW 16:53:58 10° SSW
Cosmos 1500 Rocket 3.6 16:49:37 10° N 16:54:07 86° W 16:58:32 10° S
Cosmos 1627 Rocket 4.4 16:48:49 10° N 16:55:00 63° ENE 17:01:04 10° SSE
Cosmos 2034 Rocket 4.0 16:49:37 10° S 16:55:48 84° W 17:02:00 10° N
CZ-2D R/B 3.5 16:57:29 10° S 17:01:19 69° WSW 17:05:10 10° NNW
NOSS 3-1 (A) 4.0 16:54:45 10° NW 17:02:09 86° NE 17:10:53 10° SE
USA 306 3.4 16:58:19 10° W 17:02:28 49° NNW 17:04:00 33° NE
Meteor 1-20 Rocket 4.3 16:58:28 10° NNW 17:04:18 85° W 17:10:09 10° S
Cosmos 1805 Rocket 3.4 17:00:37 10° N 17:04:59 74° E 17:09:18 10° SSE
NOSS 3-1 (C) 4.5 16:57:51 10° NW 17:05:14 66° SW 17:13:51 10° SSE
Cosmos 1833 Rocket 2.7 17:03:44 10° S 17:09:12 56° ESE 17:11:51 30° NE
Cosmos 2360 4.1 17:04:38 10° NNW 17:10:24 73° ENE 17:16:07 10° SE
Cosmos 2279 Rocket 4.3 17:05:30 10° SSE 17:11:16 42° E 17:16:36 12° NNE
NOSS 2-2 (D) 4.3 17:07:59 10° NW 17:12:46 52° NE 17:15:23 32° ESE
CZ-4B R/B 3.2 17:08:04 10° SSE 17:13:33 86° WSW 17:18:57 10° NNW
Meteor 1-14 Rocket 4.4 17:08:27 10° N 17:14:02 49° ENE 17:19:44 10° SSE
NOSS 2-2 (E) 4.3 17:09:16 10° NW 17:14:16 62° NE 17:18:12 25° ESE
Sich 1 2.8 17:11:53 10° N 17:16:11 76° E 17:20:28 10° SSE
ARGOS 3.0 17:12:24 10° SSE 17:17:49 83° ENE 17:23:17 10° NNW
USA 307 3.5 17:14:49 10° W 17:18:59 47° NNW 17:19:51 40° NNE
ERBS 3.0 17:16:18 10° W 17:19:22 40° NNW 17:19:27 40° NNW
H-2A R/B 2.6 17:14:23 10° S 17:19:34 61° WSW 17:24:39 10° NNW
Cosmos 1898 Rocket 3.6 17:14:56 10° NNW 17:20:14 79° WSW 17:25:26 10° SSE
MOS 1-B Rocket 3.9 17:14:48 10° NNE 17:20:32 90° W 17:26:52 10° SSW
YAOGAN 3 4.5 17:16:27 10° SSE 17:20:48 90° W 17:25:11 10° NNW
Cosmos 1634 Rocket 3.9 17:15:01 10° S 17:21:18 76° E 17:27:39 10° NNE
SL-24 R/B - RUBIN 2 3.9 17:18:53 10° NNW 17:23:11 46° NE 17:23:11 46° NE
Cosmos 1655 Rocket 4.5 17:19:16 10° N 17:24:56 37° ENE 17:24:56 37° ENE
COSMOS 2455 3.3 17:20:05 10° S 17:25:35 39° ESE 17:25:53 39° ESE
ATLAS CENTAUR R/B 3.5 17:24:11 10° W 17:27:30 21° NNW 17:29:27 16° N
Cosmos 468 Rocket 3.9 17:22:25 10° SSW 17:27:34 85° WNW 17:30:21 28° NNE
Landsat 5 3.3 17:27:18 67° ENE 17:27:34 69° ESE 17:31:38 10° S
CZ-4 R/B 4.5 17:25:22 10° S 17:29:28 78° WSW 17:33:38 10° NNW
SL-19 R/B 4.5 17:23:42 10° NNE 17:29:40 90° E 17:36:07 10° SSW
COSMO-SKYMED 1 2.6 17:29:13 28° N 17:31:28 80° WNW 17:35:48 10° SSW
Meteor 2-16 Rocket 4.3 17:25:53 10° N 17:31:58 67° ENE 17:38:03 10° SSE
Cosmos 2026 Rocket 4.1 17:28:16 10° NNW 17:34:27 73° W 17:40:30 10° S
SL-08 RB Rocket 3.6 17:31:10 10° SSE 17:35:50 87° ENE 17:40:29 10° NNW
Cosmos 540 Rocket 3.3 17:31:09 10° SSW 17:36:13 72° ESE 17:37:03 59° NE
deb Chang Zheng 4 4.4 17:32:06 10° S 17:36:17 51° W 17:40:31 10° NNW
CZ-2C R/B 2.6 17:32:51 12° NNE 17:37:41 79° WNW 17:42:50 10° SSW
Cosmos 1500 3.5 17:36:47 10° NNW 17:44:46 - S 17:40:06 60° NW
Okean O Rocket 2.2 17:36:10 10° S 17:40:32 58° W 17:44:58 10° NNW
USA 308 3.6 17:37:15 10° W 17:41:12 42° NNW 17:41:12 42° NNW
Cosmos 2360 Rocket 4.1 17:39:40 10° N 17:41:19 15° NNE 17:41:19 15° NNE
ISS -2.0 17:42:56 10° WNW 17:44:55 31° NW 17:44:55 31° NW
CZ-4C R/B 2.9 17:40:51 10° NW 17:47:46 63° NE 17:49:48 48° E
Cosmos 2180 Rocket 4.4 17:42:09 10° S 17:48:24 61° E 17:49:36 52° NE
YAOGAN 1 3.8 17:50:22 32° NNW 17:50:22 32° NNW 17:52:45 10° NNW
Meteor 1-5 Rocket 4.2 17:49:14 10° NNW 17:55:16 88° E 18:01:13 10° S
CZ-4 R/B 3.7 18:00:22 16° NNW 18:00:22 16° NNW 18:01:10 10° NNW
Cosmos 2369 3.9 17:53:58 10° NNW 17:59:42 70° WSW 18:02:23 32° S
Cosmos 2322 Rocket 3.9 17:55:18 10° NNW 17:57:35 20° N 17:57:35 20° N
GEOS 3 Rocket 4.5 17:56:54 19° S 18:00:28 47° SW 18:05:30 10° NW
Cosmos 1782 3.9 17:58:52 10° SSW 18:02:36 43° W 18:02:36 43° W
Cosmos 1697 Rocket 3.8 18:02:30 10° NW 18:07:43 41° WSW 18:12:56 10° S
Cosmos 1980 Rocket 2.3 18:04:17 10° NNW 18:09:57 73° WSW 18:10:40 64° SSW
USA 267 3.8 18:08:54 41° NNE 18:10:03 44° N 18:16:10 10° WNW
NOSS 2-2 (C) 4.4 18:04:58 10° NW 18:10:07 78° SW 18:10:59 65° S
Cosmos 841 Rocket 3.7 18:05:40 10° SSW 18:10:09 65° SW 18:10:09 65° SW
Cosmos 2333 Rocket 4.5 18:10:44 10° N 18:11:35 12° N 18:11:35 12° N
SL-16 R/B 3.7 18:09:06 10° NNW 18:11:40 25° N 18:11:40 25° N
Cosmos 2082 Rocket 2.6 18:14:16 10° SSW 18:18:33 54° SSW 18:18:33 54° SSW
Lacrosse 5 rocket 3.9 18:20:01 10° NW 18:20:53 16° NW 18:20:53 16° NW
COSMOS 2406 3.7 18:19:57 10° SW 18:25:36 56° WNW 18:26:02 54° NW
Cosmos 2278 4.1 18:20:04 10° NNW 18:24:48 60° NW 18:24:48 60° NW
ATLAS 2AS CENTAUR R/B 4.2 18:33:44 10° NW 18:39:51 25° N 18:39:54 25° N
Cosmos 1833 Rocket 4.2 18:48:31 10° WSW 18:53:27 31° NW 18:53:35 31° NW
COSMOS 2455 4.3 19:05:38 10° WSW 19:09:04 32° W 19:09:04 32° W
CZ-4C R/B 4.0 19:29:30 10° NW 19:35:02 41° W 19:35:02 41° W
